Regional Weather Roundup
Issued by NWS Pendleton, OR

Home | Current Version | Previous Version | Text Only | Print | Product List | Glossary On
Versions: 1 2 3 4 5 6 7 8 9 10 11 12 13 14 15 16 17 18 19 20 21 22 23 24 25 26 27 28 29 30 31 32 33 34 35 36 37 38 39 40 41 42 43 44 45 46 47 48 49 50
000
ASUS46 KPDT 210925
RWRPDT
PENDLETON REGIONAL WEATHER ROUNDUP
NATIONAL WEATHER SERVICE PENDLETON OREGON
100 AM PST SUN JAN 21 2018

NOTE: FAIR INDICATES FEW OR NO CLOUDS BELOW 12,000 FEET WITH NO
SIGNIFICANT WEATHER AND/OR OBSTRUCTIONS TO VISIBILITY.

# INDICATES UNOFFICIAL STATION AND DATA

WAZ520-211010-
EAST SLOPES OF WASHINGTON CASCADES

CITY            SKY/WX      TMP DP  RH  WIND    PRES   REMARKS
#BULLFROG       N/A         32  31  96  CALM    N/A
#CLE ELUM HS    N/A         32  30  92  CALM    29.97S
#EASTON DOT     N/A         31  30  96  CALM    N/A
#ELK HTS DOT    N/A         31  31  100 S3      N/A
#GLENWOOD       N/A         31  30  96  CALM    30.09F
#NELSON 3SW     N/A         30  29  96  CALM    30.27S
#NILE           N/A         29  28  96  CALM    29.32F
#TEANAWAY 4NE   N/A         30  30  100 CALM    N/A
#TROUT LAKE 1NE N/A         34  33  96  CALM    30.10F
#TROUT LAKE 1E  N/A         32  31  96  CALM    30.07F
$$

WAZ521-211010-
SIMCOE HIGHLANDS

CITY            SKY/WX      TMP DP  RH  WIND    PRES   REMARKS
#BICKLETON HS   N/A         32  28  85  SW28    29.63F WCI 18
#CENTERVILLE 1SWN/A         33  30  89  CALM    30.08F
#GOLDENDALE 1NE N/A         31  24  75  NW7     N/A
#GOLDENDALE 4W  N/A         29  20  69  E2      30.09S
#GOODNOE HILLS  N/A         36  28  72  CALM    29.99S
#LYLE 6NE       N/A         33  32  96  NE1     30.11S
#PITT 4SE       N/A         34  30  85  CALM    30.14S
$$

WAZ026-211010-
KITTITAS VALLEY

CITY            SKY/WX      TMP DP  RH  WIND    PRES   REMARKS
ELLENSBURG AP   MOCLDY      32  28  85  E7      30.01F
#ELLENSBURG CWU N/A         29  27  92  CALM    30.01F
#ELLENSBURG 3NE N/A         33  30  89  E2      28.09F
#ELLENSBURG 1E  N/A         28  26  92  CALM    30.12F
#KITTITAS 3S    N/A         26  25  96  W3      30.07F
#MANASTASH RDG  N/A         35  34  96  CALM    N/A
#ROCKY CYN DOT  N/A         29  29  100 CALM    N/A
#RYEGRASS DOT   N/A         37  26  64  CALM    N/A
$$

WAZ027-211010-
YAKIMA VALLEY

CITY            SKY/WX      TMP DP  RH  WIND    PRES   REMARKS
SUNNYSIDE AP    PTCLDY      35  31  85  E7      30.08F
YAKIMA AIRPORT  MOCLDY      41  31  67  E7      30.04F
YAKIMA-VAGABOND PTCLDY      41  29  62  S10     30.00F
#DONALD 2NE     N/A         38  20  48  SE3     28.89F
#GRANDVIEW      N/A         38  31  76  CALM    30.11F
#MABTON         N/A         41  36  82  SE6     30.07F
#MOXEE 2E       N/A         39  N/A N/A E5      30.00S
#NACHES 2SW     N/A         32  29  89  CALM    30.01F
#OUTLOOK DOT    N/A         35  33  92  E2      30.03F
#PARKER DOT     N/A         37  30  75  W1      30.05S
#TERRACE HTS    N/A         38  31  76  CALM    30.04S
#TOPPENISH      N/A         36  31  82  CALM    30.00F
#I82 S UMTANUM RN/A         37  27  67  S3      N/A
#UNION GAP DOT  N/A         38  31  76  SW6     30.08F
#W YAKIMA       N/A         35  31  85  CALM    30.07F
#WHITE SWAN 5E  N/A         33  30  89  CALM    30.07F
#WILEY CITY 3W  N/A         36  27  69  CALM    29.99S
#ZILLAH DOT     N/A         37  32  82  E9      N/A
$$

WAZ028-211010-
LOWER COLUMBIA BASIN...WASHINGTON

CITY            SKY/WX      TMP DP  RH  WIND    PRES   REMARKS
PASCO           CLEAR       32  29  89  N3      30.12S
PROSSER AWOS    N/A         41  34  76  VRB6    30.11F
RICHLAND AWOS   CLEAR       39  31  73  SE7     30.11S
#BENTON CITY    N/A         37  32  82  CALM    30.01F
#CONNELL 5N     N/A         33  30  89  CALM    30.12F
#CONNELL 5NW    N/A         35  32  89  CALM    30.07S
#ELTOPIA 6NW    N/A         37  34  89  CALM    29.05F
#KAHLOTUS       N/A         34  30  85  S3      30.12S
#KENNEWICK 3S   N/A         39  30  70  S2      30.13R
#PATERSON       N/A         35  31  85  E1      30.11F
#PROSSER DOT    N/A         40  32  73  CALM    30.10F
#SAGEMOOR 2W    N/A         35  31  85  CALM    30.01S
#TOUCHET 2S     N/A         38  30  73  W3      30.11S
#WEST PASCO     N/A         36  30  79  CALM    30.11S
$$

WAZ029-211010-
FOOTHILLS OF THE BLUES...WASHINGTON

CITY            SKY/WX      TMP DP  RH  WIND    PRES   REMARKS
WALLA WALLA AP  CLEAR       43  28  55  S9      30.10S
#CLYDE 6NW      N/A         38  31  76  SE7     30.12S
#LOWDEN 2SE     N/A         37  31  79  E2      30.09S
#PLEASANT VIEW 1N/A         35  30  82  S6      30.17S
#PRESCOTT       N/A         33  30  89  CALM    30.12F
#WHITMAN COLLEGEN/A         42  31  65  SE1     30.18S
#WAITSBURG 5S   N/A         38  30  73  SE8     30.22F
#WAITSBURG 6SSE N/A         37  27  67  S3      29.97S
#WAITSBURG 8N   N/A          0  N/A N/A S3      29.82S
#WALLA WALLA 5E N/A         43  30  60  S9      N/A
#WHITMAN MISSIONN/A         39  31  73  CALM    30.14S
$$

WAZ030-211010-
BLUE MOUNTAINS...WASHINGTON

CITY            SKY/WX      TMP DP  RH  WIND    PRES   REMARKS
#DIXIE 5SE      N/A         36  31  82  SW7     29.98F
$$

ORZ009-041-WAZ024-211010-
COLUMBIA RIVER GORGE

CITY            SKY/WX      TMP DP  RH  WIND    PRES   REMARKS
HOOD RIVER AP   CLOUDY      36  34  92  CALM    30.09F
THE DALLES AP   PTCLDY      32  31  96  CALM    30.11F
#ARLINGTON AIRPON/A         33  30  89  SE6     30.13F
#ARLINGTON HS   N/A         31  26  81  N2      30.04S
#CELILO DOT     N/A         37  32  82  CALM    N/A
#LYLE           N/A         38  35  89  NE1     30.12F
#MARYHILL       N/A         36  33  89  CALM    29.96
#MURDOCK        N/A         34  32  92  CALM    30.08F
#RUFUS DOT      N/A         36  N/A N/A S8      N/A
#SMITHVILLE     N/A         32  30  92  CALM    30.06F

$$

ORZ510-211010-
NORTH CENTRAL OREGON

CITY            SKY/WX      TMP DP  RH  WIND    PRES   REMARKS
#ANTELOPE       N/A         26  22  85  CALM    30.03S
#CHENOWITH 1W   N/A         34  34  100 E7      N/A
#COW CYN RST AREN/A         35  N/A N/A S8      N/A
#DUFUR          N/A         35  29  78  CALM    30.07F
#DUFUR 9E       N/A         35  28  75  S12     30.15F WCI 27
#GRASS VALLEY 1SN/A         31  27  85  S3      30.06F
#KENT DOT       N/A         29  19  66  S7      N/A
#MAUPIN SCHOOL  N/A         32  27  82  CALM    30.14F
#SHANIKO 5WSW   N/A         31  N/A N/A S16     N/A    WCI 20
#SHANIKO 4NW    N/A         31  23  72  S23G33  30.00F WCI 18
#TYGH VALLEY 2NEN/A         31  27  85  CALM    30.12F
#WAPANITIA AIRPON/A         30  26  85  CALM    30.13F
#WASCO DOT      N/A         31  27  85  E2      N/A
#WASCO 5NE      N/A         33  28  82  S7      30.11F
$$

ORZ511-211010-
CENTRAL OREGON

CITY            SKY/WX      TMP DP  RH  WIND    PRES   REMARKS
BEND AIRPORT    MOCLDY      27  23  85  CALM    30.10S
PRINEVILLE AP   PTCLDY      30  23  75  S8      30.10F
REDMOND AIRPORT MOCLDY      30  22  72  S9      30.08S
#ASHWOOD SCHOOL N/A         24  21  88  CALM    30.04F
#BEND 1SW       N/A         30  25  81  SW2     N/A
#BEND-AWBREY    N/A         32  25  75  SW8     30.16S
#BEND-KIM LN    N/A         25  22  88  CALM    30.12R
#CULVER         N/A         33  24  69  E6      29.99S
#CULVER 8W      N/A         30  20  66  CALM    30.07F
#LAKE BILLY CHINN/A         32  N/A N/A SE9     30.18S
#POWELL BUTTE   N/A         35  18  49  S16     30.01F WCI 25
#PRINEVILLE     N/A         27  24  88  CALM    30.29S
#PRINEVILLE 3N  N/A         25  22  88  SE3     30.19F
#WARM SPRINGS   N/A         33  26  75  CALM    29.97F

$$


ORZ509-211010-
EAST SLOPES OF OREGON CASCADES

CITY            SKY/WX      TMP DP  RH  WIND    PRES   REMARKS
SISTERS AWOS    N/A         25  19  78  CALM    30.03S
#BLUE BOX PASS  N/A         30  N/A N/A CALM    N/A
#CAMP SHERMAN   N/A         26  23  88  CALM    30.21F
#LA PINE DOT    N/A         27  22  81  SE3     N/A
#LA PINE 4NW    N/A         24  20  84  CALM    30.28S
#LAVA BUTTE DOT N/A         28  20  71  S3      N/A
#SISTERS ODOT   N/A         23  20  88  CALM    N/A
#SISTERS 3N     N/A         24  16  71  S2      30.06F
#SUNRIVER       N/A         27  23  85  CALM    30.21F
#TUMALO 3W      N/A         34  23  64  S10     30.02S
#WANOGA BUTTE D N/A         20  20  100 W8      N/A

$$

ORZ044-211010-
LOWER COLUMBIA BASIN...OREGON

CITY            SKY/WX      TMP DP  RH  WIND    PRES   REMARKS
HERMISTON       CLEAR       29  27  92  S6      30.11S
#BOARDMAN SCHOOLN/A         29  27  92  CALM    30.11F
#BOARDMAN 8SW   N/A         34  30  85  S2      30.12F
#ECHO 8SW       N/A         33  30  89  CALM    30.12F
#I-84 EX 198 DOTN/A         40  25  55  NE12    N/A    WCI 33
#IONE SCHOOL    N/A         37  24  59  CALM    30.14S
#UMATILLA       N/A         33  27  78  CALM    30.06F
$$

ORZ507-211010-
NORTHERN FOOTHILLS OF THE BLUES

CITY            SKY/WX      TMP DP  RH  WIND    PRES   REMARKS
PENDLETON AIRPT CLEAR       35  26  69  S8      30.09F
#ADAMS 3WNW     N/A         30  27  88  CALM    30.15S
#ATHENA         N/A         36  30  79  E3      30.17S
#HELIX SCHOOL   N/A         30  28  92  SE1     30.16S
#HELIX 3N       N/A         34  30  85  SE9     30.09S
#HOLDMAN 6E     N/A         35  30  82  E7      29.94F
#M-F GROVE ELEM N/A         40  28  62  CALM    30.08S
#M-FREEWATER 5SEN/A         39  30  70  E9      30.10S
#PENDLETON DNTN N/A         29  21  72  CALM    N/A
#PDT AQUATIC CTRN/A         29  23  78  CALM    30.09S
#PDT SUNRIDGE   N/A         26  23  88  CALM    30.13S
#PENDLETON 6SE  N/A         37  28  70  E7      30.09F
#PENDLETON 7NW  N/A         35  28  75  S5      32.23
#PILOT ROCK 1S  N/A         39  23  52  S5      30.10S
#PILOT ROCK     N/A         31  24  75  CALM    30.10F
#TUTUILLA       N/A         28  24  85  CALM    30.16S
#UMAPINE 2E     N/A         40  32  73  SE6     30.09S

$$

ORZ508-211010-
SOUTHERN FOOTHILLS OF THE BLUES

CITY            SKY/WX      TMP DP  RH  WIND    PRES   REMARKS
LEXINGTON       CLEAR       36  27  69  E7      30.10F
#AJAX           N/A         36  21  54  N1      30.20F
#CONDON 5W      N/A         30  22  72  S9      30.01S
#FOSSIL SCHOOL  N/A         32  26  78  CALM    30.00F
#HEPPNER EOC    N/A         39  27  62  SE2     30.05F
#HEPPNER 4NE    N/A         37  26  64  S1      30.12F
#LEXINGTON 2SE  N/A         30  24  78  SW3     30.05F
#MIKKALO        N/A         38  26  62  S7      30.17F
#OLEX 4N        N/A         37  30  75  S6      30.07F
#RUGGS 5NE      N/A         35  23  61  N6      30.20R
#RUGGS 2SW      N/A         35  26  69  SW5     30.15F

$$

ORZ502-503-211010-
BLUE MOUNTAINS

CITY            SKY/WX      TMP DP  RH  WIND    PRES   REMARKS
MEACHAM         CLEAR       21  17  84  CALM    30.08R
#BATTLE MTN DOT N/A         25  23  92  S8      N/A
#GRANITE        N/A         16   9  73  CALM    29.74S
#HARDMAN 10S    N/A         25  22  88  S3      30.31F
#LADD CYN SMT   N/A         26  24  92  SE9     N/A
#LADD CREEK ODOTN/A         28  25  88  W3      N/A
#LONG CREEK HS  N/A         31  28  88  S13     30.09F WCI 21
#N POWDER DOT   N/A         24  23  96  W8      N/A
#PIKES PEAK     N/A         37  23  56  S15     27.99S WCI 28
#SUMMERVILLE 5NWN/A         24  23  96  CALM    28.05R
#TOLLGATE       N/A         23  21  92  CALM    30.07F
#TROY SCHOOL    N/A         33  31  92  CALM    30.07R
#UKIAH          N/A         19  17  92  CALM    30.16S
#WESTON 4E      N/A         32  27  82  E7      30.14S
$$

ORZ505-211010-
JOHN DAY BASIN

CITY            SKY/WX      TMP DP  RH  WIND    PRES   REMARKS
JOHN DAY        CLEAR       29  25  85  E10     30.12S
#ANTELOPE 9ESE  N/A         27  24  88  CALM    N/A
#DAYVILLE SCHOOLN/A         30  23  75  SE5     30.10S
#MITCHELL 8NW   N/A         34  21  58  W2      30.19F
#MONUMENT HS    N/A         24  20  84  CALM    30.09S
#MT. VERNON 5SE N/A         30  24  78  E3      30.06S
#SPRAY SCHOOL   N/A         24  N/A N/A N1      N/A
#WINLOCK        N/A         34  28  78  S2      30.04F
$$

ORZ506-211010-
OCHOCO AND JOHN DAY HIGHLANDS

CITY            SKY/WX      TMP DP  RH  WIND    PRES   REMARKS
#HORSE RIDGE DO N/A         30  20  66  SE14    N/A    WCI 19
#IZEE 6NW       N/A         19  18  96  S2      N/A
#PAULINA ODOT   N/A         23  21  92  CALM    N/A
#PINE MTN OBS   N/A         20  18  92  S10     N/A
#PRAIRIE CITY   N/A         22  16  77  CALM    30.28F
#SENECA         N/A         12  N/A N/A CALM    N/A
#SENECA 9NW     N/A         13  11  91  CALM    30.31S
$$

ORZ049-211010-
GRANDE RONDE VALLEY

CITY            SKY/WX      TMP DP  RH  WIND    PRES   REMARKS
LA GRANDE       CLEAR       32  27  82  S13     30.13F WCI 22
#COVE SCHOOL    N/A         33  28  82  CALM    30.12S
#COVE 6NW       N/A         32  27  82  CALM    30.21F
#ELGIN 3N       N/A         26  21  81  CALM    30.09S
#ELGIN 1E       N/A         29  24  81  CALM    N/A
#IMBLER SCHOOL  N/A         28  25  88  CALM    30.09S
#ISLAND CITY 4N N/A         46  40  79  S5      30.04F
#LADD CYN DOT   N/A         34  28  78  S16     N/A    WCI 24
#UNION 1S       N/A         32  27  82  S3      30.22F
$$

ORZ050-211010-
WALLOWA COUNTY

CITY            SKY/WX      TMP DP  RH  WIND    PRES   REMARKS
JOSEPH AIRPORT  CLEAR       18  16  92  S5      30.10F
#ENTERPRISE HS  N/A         20  17  88  CALM    30.16S
#IMNAHA SCHOOL  N/A         35  28  75  SE3     30.17S
#IMNAHA 10S     N/A         31  27  85  SW2     29.99S
#JOSEPH         N/A         23  15  71  CALM    30.27F
#JOSEPH 3N      N/A         13   8  80  CALM    30.11F
#JOSEPH 3W      N/A         22  18  84  CALM    29.91S
#LOSTINE        N/A         21  18  88  CALM    30.06F
#LOSTINE 3SE    N/A         22  18  84  W3      30.14F
#MT HOWARD 8000 N/A         16  12  84  SW3     29.93S
#PROMISE 1S     N/A         25  23  92  CALM    30.29F
#WALLOWA LAKE   N/A         22  20  92  CALM    30.09F
#WALLOWA SCHOOL N/A         21  20  96  CALM    30.10F



$$



USA.gov is the U.S. government's official web portal to all federal, state and local government web resources and services.